Find Starlink 33859

NORAD ID: 63640 Int'l Des: 2025-083 Owner: SPXS Country: US Constellation: starlink operational
LEOCIRCULAR

实时位置

正在加载3D地球...

关于 Starlink 33859

正在加载描述...

即将过境

Passes for default location (London). Set your location on the main map for personalized predictions.

高度历史

Loading altitude history...

两行轨道根数

1 63640U 25083G 26124.79900740 .00022068 00000-0 80792-3 0 9995
2 63640 43.0007 48.7201 0001512 270.4639 89.6040 15.27626329 58640
Epoch: May 4, 2026 • Age: 10 hours

当前状态

高度 484.8 km
速度 7.63 km/s
星下点 33.27°N, 155.43°E
发射日期 Apr 25, 2025
运行时间 1 years
类型 internet

技术详情

分类 Payload
质量 575.00 kg
干质量 530.00 kg
总质量 575.00 kg
长度 0.30 m
直径 4.10 m
跨度 29.00 m
形状 Box + pan
制造商 SPXS
平台类型 Starlink V2MO
阶段状态 In Orbit
所有者/国家 SPXS/US

Most Searched